Location: Prairie Dale
(45.6972°N, 104.5033°W)
Time: 13:55:24
(UTC+00:00)

DX 1 - Visible Passes

Search period start: 02 July 2022 00:00
Search period end: 12 July 2022 00:00
Orbit: 618 x 628 km, 98.4° (Epoch: 01 July)

Date Brightness Start Highest point End Pass type
(mag) Time Alt. Az. Time Alt. Az. Time Alt. Az.
02 Jul ? 03:31:27 10° NE 03:35:18 29° E 03:39:08 10° SSE visible
02 Jul ? 05:07:34 10° N 05:11:23 29° WNW 05:15:09 10° SW visible
03 Jul ? 03:49:27 10° NNE 03:53:40 45° E 03:57:51 10° S visible
03 Jul ? 05:26:15 10° NNW 05:29:29 21° WNW 05:32:42 10° WSW visible
04 Jul ? 04:07:36 10° NNE 04:11:59 70° ESE 04:16:19 10° S visible
04 Jul ? 05:45:13 10° NNW 05:47:33 14° WNW 05:49:53 10° W visible
05 Jul ? 04:25:52 10° N 04:30:15 77° WNW 04:34:36 10° SSW visible
06 Jul ? 04:44:13 10° N 04:48:28 50° WNW 04:52:40 10° SW visible
07 Jul ? 03:26:48 10° NE 03:30:29 26° E 03:34:07 10° SSE visible
07 Jul ? 05:02:42 10° N 05:06:38 33° WNW 05:10:32 10° SW visible
08 Jul ? 03:44:44 10° NNE 03:48:51 39° E 03:52:56 10° SSE visible
08 Jul ? 05:21:19 10° NNW 05:24:45 23° WNW 05:28:11 10° WSW visible
09 Jul ? 04:02:50 10° NNE 04:07:11 60° ESE 04:11:28 10° S visible
09 Jul ? 05:40:09 10° NNW 05:42:50 16° WNW 05:45:30 10° W visible
10 Jul ? 04:21:03 10° NNE 04:25:27 88° W 04:29:48 10° SSW visible
10 Jul ? 05:59:34 10° NW 06:00:51 11° WNW 06:02:08 10° WNW visible
11 Jul ? 04:39:23 10° N 04:43:41 58° WNW 04:47:56 10° SSW visible
